#timestamp,LO_Frequency,Hit,StdDev 
1697043615.6,286047002.1,N
1697043635.5,286047004.0,N
1697043655.3,286047004.1,N
1697043675.2,286047005.5,N
1697043695.9,286047005.2,N
1697043715.7,286047004.7,N
1697043735.6,286047007.5,Y
1697043755.4,286047005.6,P
1697043775.3,286047005.0,N
1697043795.1,286047006.8,P
1697043796.0,286047006.8,Y
1697043815.8,286047001.8,P
1697043835.7,286047003.8,N
1697043855.5,286047003.6,N
1697043875.3,286047003.4,Y
1697043895.2,286047002.7,P
1697043915.0,286047002.1,P
1697043915.9,286047002.1,P
1697043935.8,286047002.1,Y
1697043955.6,286047000.4,P
1697043975.4,286047002.8,N
1697043995.3,286047000.0,N
1697044015.1,286047001.8,N
1697044035.9,286047004.4,Y
1697044055.7,286047001.7,P
1697044075.5,286047003.4,P
1697044095.4,286047004.9,P
1697044115.2,286047007.3,Y
1697044135.0,286047003.4,P
1697044135.9,286047003.4,P
1697044155.8,286047003.2,P
1697044175.6,286047005.5,Y
1697044195.5,286047001.8,P
1697044215.3,286047001.6,N
1697044235.1,286047001.5,N
1697044255.9,286047001.3,N
1697044275.7,286047003.8,Y
1697044295.6,286047002.5,P
1697044315.4,286047001.7,P
1697044335.2,286047003.5,P
1697044355.1,286047003.5,Y
1697044356.0,286047003.5,P
1697044375.8,286047002.0,P
1697044395.6,286047004.1,P
1697044415.5,286047005.4,Y
1697044435.3,286047003.7,P
1697044455.2,286047003.3,P
1697044475.9,286047004.1,P
1697044495.7,286047003.5,Y
1697044515.6,286047000.4,P
1697044535.4,286046999.8,N
1697044555.3,286047002.5,N
1697044575.1,286047004.0,N
1697044576.0,286047004.0,N
1697044595.8,286047006.0,Y
1697044615.7,286047004.2,P
1697044635.5,286047003.3,P
1697044655.3,286047004.6,P
1697044675.2,286047008.8,Y
1697044695.0,286047003.3,P
1697044695.9,286047003.3,P
1697044715.8,286047006.0,P
1697044735.6,286047005.2,Y
1697044755.4,286047001.8,P
1697044775.3,286047001.9,N
1697044795.1,286047004.3,P
1697044815.9,286047003.8,Y
1697044835.7,286047000.4,P
1697044855.5,286047002.1,N
1697044875.4,286047003.2,N
1697044895.2,286047004.0,Y
1697044915.0,286047000.1,P
1697044915.9,286047000.1,N
1697044935.8,286047002.4,N
1697044955.6,286047002.5,N
1697044975.5,286047001.4,N
1697044995.3,286047001.3,N
1697045015.1,286047003.8,Y
1697045035.9,286047002.6,P
1697045055.7,286047001.4,N
1697045075.5,286047003.6,P
1697045095.4,286047003.4,Y
1697045115.2,286047003.7,P
1697045135.1,286047004.1,P
1697045136.0,286047004.1,P
1697045155.8,286047003.6,Y
1697045175.6,286047002.6,P
1697045195.5,286047004.4,P
1697045215.3,286047003.6,P
1697045235.2,286047002.9,Y
1697045255.9,286047000.7,P
1697045275.7,286046998.6,N
1697045295.6,286047000.7,N
1697045315.4,286046998.2,N
1697045335.2,286047000.3,N
1697045355.1,286046999.9,N
1697045356.0,286046999.9,N
1697045375.8,286047004.3,N
1697045395.7,286047003.5,N
1697045415.5,286047004.1,N
1697045435.3,286047005.9,N
1697045455.2,286047005.4,N
1697045475.0,286047007.6,Y
1697045475.9,286047007.6,P
1697045495.8,286047005.8,N
1697045515.6,286047003.3,N
1697045535.4,286047005.4,N
1697045555.3,286047004.8,N
1697045575.1,286047004.9,N
1697045595.8,286047005.7,Y
1697045615.7,286047001.1,P
1697045635.5,286047000.9,N
1697045655.4,286047000.4,N
1697045675.2,286047002.5,N
1697045695.0,286047002.5,N
1697045695.9,286047002.5,N
1697045715.8,286047002.4,N
1697045735.6,286047001.6,N
1697045755.4,286047002.0,N
1697045775.3,286047001.5,N
1697045795.1,286047003.6,Y
1697045815.9,286047003.8,P
1697045835.7,286047005.9,P
1697045855.5,286047004.6,N
1697045875.4,286047006.9,Y
1697045895.2,286047003.8,P
1697045915.1,286047003.5,P
1697045916.0,286047003.5,P
1697045935.8,286047004.4,Y
1697045955.6,286046998.7,P
1697045975.5,286046999.0,N
1697045995.3,286046999.1,N
1697046015.1,286046998.4,N
1697046035.9,286046998.5,N
1697046055.7,286046999.8,N
1697046075.6,286047002.7,N
1697046095.4,286047002.5,N
1697046115.2,286047000.2,N
1697046135.1,286047004.4,N
1697046136.0,286047004.4,N
1697046155.8,286047003.1,N
1697046175.6,286047005.2,N
1697046195.5,286047005.4,N
1697046215.3,286047005.3,N
1697046235.2,286047007.6,N
1697046255.9,286047004.9,N
1697046275.7,286047006.8,N
1697046295.6,286047006.9,N
1697046315.4,286047008.7,N
1697046335.2,286047008.8,N
1697046355.1,286047009.0,N
1697046356.0,286047009.0,N
1697046375.8,286047010.1,N
1697046395.7,286047012.4,Y
1697046415.5,286047007.0,P
1697046435.3,286047007.2,P
1697046455.2,286047004.5,P
1697046475.0,286047007.0,Y
1697046475.9,286047007.0,P
1697046495.8,286047002.8,P
1697046515.6,286047002.7,N
1697046535.4,286047002.8,N
1697046555.3,286047002.3,N
1697046575.1,286047002.6,N
1697046595.8,286047002.4,N
1697046615.7,286047001.7,N
1697046635.5,286047004.3,N
1697046655.4,286047004.2,N
1697046675.2,286047003.3,N
1697046695.0,286047006.0,Y
1697046695.9,286047006.0,P
1697046715.8,286046999.7,N
1697046735.6,286047002.5,N
1697046755.4,286047002.7,N
1697046775.3,286047001.9,N
1697046795.1,286047003.7,N
1697046815.9,286047005.9,Y
1697046835.7,286047003.6,P
1697046855.5,286047003.7,P
1697046875.4,286047003.0,P
1697046895.2,286047005.8,Y
1697046915.1,286047004.0,P
1697046916.0,286047004.0,P
1697046935.8,286047003.3,P
1697046955.6,286047004.2,Y
1697046975.5,286047000.9,P
1697046995.3,286047000.2,N
1697047015.1,286047000.6,N
1697047035.9,286046999.9,N
1697047055.7,286046999.8,N
1697047075.6,286047002.3,N
1697047095.4,286047001.5,N
1697047115.2,286047004.3,Y
1697047135.1,286047001.9,P
1697047136.0,286047001.9,P
1697047155.8,286047004.0,P
1697047175.7,286047003.8,Y
1697047195.5,286047002.1,P
